When you browse on this site, cookies collect data to enhance your experience and personalize the content and advertising you see.
Visit our Privacy Policy to learn more. By continuing to use the site, you agree to this use of cookies and data.
  • In Österreich
  • Länderverzeichnis
  • Für 7 Tage
  • Wassertemperatur
  • Wetterkarte
  • News
  • Widgets
  • user-avatar
    Anmelden

    Stündliche Wetter San Miguel Vindho

    Heute, 22 August, Donnerstag

    Zeit Temperatur Niederschläge Wind Luftdruck Luftfeuchtigkeit
    00:00 +14°C° 0.3 mm 0 m/S 594 mmHg 96%
    01:00 +14°C° 0.3 mm 0 m/S 594 mmHg 96%
    02:00 +14°C° 0.3 mm 0 m/S 594 mmHg 95%
    03:00 +14°C° 0 mm 0 m/S 594 mmHg 95%
    04:00 +14°C° 0 mm 0 m/S 594 mmHg 94%
    05:00 +14°C° 0 mm 0 m/S 594 mmHg 93%
    06:00 +16°C° 0 mm 0 m/S 595 mmHg 87%
    07:00 +17°C° 0 mm 0 m/S 596 mmHg 81%
    08:00 +18°C° 0 mm 0 m/S 596 mmHg 75%
    09:00 +22°C° 0.9 mm 1 m/S 596 mmHg 71%
    10:00 +23°C° 0.9 mm 1 m/S 597 mmHg 67%
    11:00 +24°C° 0.9 mm 1 m/S 597 mmHg 64%
    12:00 +24°C° 2.2 mm 2 m/S 596 mmHg 65%
    13:00 +23°C° 2.2 mm 2 m/S 596 mmHg 67%
    14:00 +22°C° 2.2 mm 3 m/S 595 mmHg 68%
    15:00 +21°C° 1.7 mm 2 m/S 594 mmHg 73%
    16:00 +20°C° 1.7 mm 2 m/S 594 mmHg 78%
    17:00 +20°C° 1.7 mm 1 m/S 593 mmHg 84%
    18:00 +20°C° 0.7 mm 1 m/S 594 mmHg 84%
    19:00 +19°C° 0.7 mm 1 m/S 594 mmHg 84%
    20:00 +19°C° 0.7 mm 1 m/S 595 mmHg 85%
    21:00 +18°C° 0.1 mm 1 m/S 595 mmHg 86%
    22:00 +18°C° 0.1 mm 1 m/S 594 mmHg 86%
    23:00 +16°C° 0.1 mm 1 m/S 594 mmHg 87%

    Morgen, 23 August, Freitag

    Zeit Temperatur Niederschläge Wind Luftdruck Luftfeuchtigkeit
    00:00 +16°C° 0 mm 1 m/S 594 mmHg 88%
    01:00 +15°C° 0 mm 1 m/S 594 mmHg 89%
    02:00 +15°C° 0 mm 1 m/S 593 mmHg 89%
    03:00 +15°C° 0 mm 1 m/S 593 mmHg 89%
    04:00 +14°C° 0 mm 1 m/S 593 mmHg 89%
    05:00 +14°C° 0 mm 1 m/S 593 mmHg 89%
    06:00 +16°C° 0 mm 1 m/S 594 mmHg 83%
    07:00 +18°C° 0 mm 1 m/S 595 mmHg 78%
    08:00 +20°C° 0 mm 1 m/S 596 mmHg 72%
    09:00 +22°C° 0 mm 1 m/S 596 mmHg 66%
    10:00 +24°C° 0 mm 1 m/S 597 mmHg 60%
    11:00 +25°C° 0 mm 2 m/S 597 mmHg 54%
    12:00 +25°C° 0.7 mm 2 m/S 597 mmHg 55%
    13:00 +25°C° 0.7 mm 3 m/S 596 mmHg 56%
    14:00 +25°C° 0.7 mm 3 m/S 596 mmHg 57%
    15:00 +24°C° 2 mm 3 m/S 595 mmHg 64%
    16:00 +22°C° 2 mm 3 m/S 594 mmHg 71%
    17:00 +20°C° 2 mm 3 m/S 594 mmHg 79%
    18:00 +19°C° 3.8 mm 3 m/S 594 mmHg 82%
    19:00 +17°C° 3.8 mm 3 m/S 594 mmHg 85%
    20:00 +15°C° 3.8 mm 4 m/S 594 mmHg 88%
    21:00 +16°C° 0.2 mm 3 m/S 594 mmHg 88%
    22:00 +15°C° 0.2 mm 2 m/S 594 mmHg 87%
    23:00 +15°C° 0.2 mm 1 m/S 594 mmHg 87%

    übermorgen, 24 August, Samstag

    Zeit Temperatur Niederschläge Wind Luftdruck Luftfeuchtigkeit
    00:00 +15°C° 0 mm 1 m/S 594 mmHg 87%
    01:00 +15°C° 0 mm 1 m/S 594 mmHg 86%
    02:00 +15°C° 0 mm 1 m/S 593 mmHg 86%
    03:00 +15°C° 0 mm 1 m/S 594 mmHg 85%
    04:00 +15°C° 0 mm 1 m/S 594 mmHg 85%
    05:00 +15°C° 0 mm 1 m/S 594 mmHg 85%
    06:00 +16°C° 0 mm 1 m/S 594 mmHg 80%
    07:00 +19°C° 0 mm 1 m/S 595 mmHg 75%
    08:00 +20°C° 0 mm 1 m/S 596 mmHg 70%
    09:00 +22°C° 0 mm 1 m/S 597 mmHg 65%
    10:00 +23°C° 0 mm 1 m/S 597 mmHg 59%
    11:00 +25°C° 0 mm 2 m/S 597 mmHg 54%
    12:00 +25°C° 0.4 mm 2 m/S 597 mmHg 54%
    13:00 +26°C° 0.4 mm 2 m/S 596 mmHg 54%
    14:00 +26°C° 0.4 mm 2 m/S 596 mmHg 54%
    15:00 +25°C° 1.2 mm 2 m/S 595 mmHg 61%
    16:00 +22°C° 1.2 mm 3 m/S 595 mmHg 68%
    17:00 +21°C° 1.2 mm 3 m/S 594 mmHg 75%
    18:00 +19°C° 2.3 mm 3 m/S 594 mmHg 79%
    19:00 +18°C° 2.3 mm 2 m/S 594 mmHg 84%
    20:00 +17°C° 2.3 mm 2 m/S 594 mmHg 89%
    21:00 +18°C° 0.3 mm 1 m/S 594 mmHg 88%
    22:00 +18°C° 0.3 mm 1 m/S 594 mmHg 87%
    23:00 +16°C° 0.3 mm 1 m/S 594 mmHg 86%

    25 August, Sonntag

    Zeit Temperatur Niederschläge Wind Luftdruck Luftfeuchtigkeit
    00:00 +16°C° 0 mm 1 m/S 594 mmHg 86%
    01:00 +16°C° 0 mm 1 m/S 593 mmHg 85%
    02:00 +15°C° 0 mm 1 m/S 593 mmHg 85%
    03:00 +15°C° 0 mm 1 m/S 593 mmHg 84%
    04:00 +15°C° 0 mm 1 m/S 593 mmHg 84%
    05:00 +14°C° 0 mm 1 m/S 593 mmHg 84%
    06:00 +16°C° 0 mm 1 m/S 594 mmHg 78%
    07:00 +19°C° 0 mm 1 m/S 595 mmHg 72%
    08:00 +19°C° 0 mm 0 m/S 596 mmHg 66%
    09:00 +23°C° 0.2 mm 1 m/S 596 mmHg 62%
    10:00 +24°C° 0.2 mm 1 m/S 596 mmHg 58%
    11:00 +26°C° 0.2 mm 1 m/S 597 mmHg 54%
    12:00 +26°C° 0.8 mm 1 m/S 596 mmHg 53%
    13:00 +26°C° 0.8 mm 2 m/S 596 mmHg 52%
    14:00 +27°C° 0.8 mm 2 m/S 595 mmHg 51%
    15:00 +25°C° 0.6 mm 2 m/S 594 mmHg 58%
    16:00 +24°C° 0.6 mm 3 m/S 594 mmHg 66%
    17:00 +21°C° 0.6 mm 3 m/S 593 mmHg 73%
    18:00 +20°C° 1 mm 3 m/S 593 mmHg 76%
    19:00 +19°C° 1 mm 3 m/S 593 mmHg 79%
    20:00 +17°C° 1 mm 2 m/S 593 mmHg 82%
    21:00 +17°C° 0.5 mm 2 m/S 593 mmHg 82%
    22:00 +18°C° 0.5 mm 1 m/S 593 mmHg 83%
    23:00 +18°C° 0.5 mm 1 m/S 593 mmHg 84%

    26 August, Montag

    Zeit Temperatur Niederschläge Wind Luftdruck Luftfeuchtigkeit
    00:00 +16°C° 0.2 mm 1 m/S 593 mmHg 84%
    01:00 +16°C° 0.2 mm 1 m/S 593 mmHg 85%
    02:00 +16°C° 0.2 mm 1 m/S 592 mmHg 85%
    03:00 +16°C° 0.1 mm 1 m/S 592 mmHg 86%
    04:00 +15°C° 0.1 mm 1 m/S 592 mmHg 86%
    05:00 +15°C° 0.1 mm 1 m/S 592 mmHg 87%
    06:00 +16°C° 0 mm 0 m/S 593 mmHg 81%
    07:00 +17°C° 0 mm 0 m/S 594 mmHg 76%
    08:00 +19°C° 0 mm 0 m/S 595 mmHg 70%
    09:00 +21°C° 0.2 mm 0 m/S 595 mmHg 65%
    10:00 +24°C° 0.2 mm 1 m/S 595 mmHg 60%
    11:00 +26°C° 0.2 mm 1 m/S 596 mmHg 55%
    12:00 +26°C° 0.4 mm 1 m/S 595 mmHg 53%
    13:00 +26°C° 0.4 mm 1 m/S 595 mmHg 51%
    14:00 +27°C° 0.4 mm 1 m/S 595 mmHg 50%
    15:00 +25°C° 1.6 mm 1 m/S 594 mmHg 60%
    16:00 +23°C° 1.6 mm 2 m/S 593 mmHg 70%
    17:00 +20°C° 1.6 mm 2 m/S 592 mmHg 81%
    18:00 +18°C° 4.1 mm 2 m/S 592 mmHg 83%
    19:00 +17°C° 4.1 mm 2 m/S 592 mmHg 86%
    20:00 +16°C° 4.1 mm 2 m/S 592 mmHg 88%
    21:00 +16°C° 0.1 mm 1 m/S 593 mmHg 87%
    22:00 +16°C° 0.1 mm 1 m/S 593 mmHg 86%
    23:00 +15°C° 0.1 mm 0 m/S 593 mmHg 86%

    27 August, Dienstag

    Zeit Temperatur Niederschläge Wind Luftdruck Luftfeuchtigkeit
    00:00 +15°C° 0 mm 0 m/S 593 mmHg 87%
    01:00 +14°C° 0 mm 0 m/S 592 mmHg 88%
    02:00 +14°C° 0 mm 0 m/S 592 mmHg 89%
    03:00 +14°C° 0 mm 0 m/S 592 mmHg 89%
    04:00 +13°C° 0 mm 0 m/S 592 mmHg 89%
    05:00 +13°C° 0 mm 0 m/S 592 mmHg 89%
    06:00 +15°C° 0 mm 0 m/S 593 mmHg 83%
    07:00 +16°C° 0 mm 0 m/S 594 mmHg 77%
    08:00 +18°C° 0 mm 0 m/S 595 mmHg 71%
    09:00 +22°C° 0.1 mm 1 m/S 595 mmHg 65%
    10:00 +23°C° 0.1 mm 1 m/S 595 mmHg 60%
    11:00 +25°C° 0.1 mm 2 m/S 596 mmHg 54%
    12:00 +25°C° 0.3 mm 2 m/S 595 mmHg 52%
    13:00 +26°C° 0.3 mm 3 m/S 595 mmHg 51%
    14:00 +26°C° 0.3 mm 3 m/S 595 mmHg 49%
    15:00 +25°C° 1.3 mm 3 m/S 594 mmHg 59%
    16:00 +22°C° 1.3 mm 3 m/S 594 mmHg 68%
    17:00 +21°C° 1.3 mm 3 m/S 594 mmHg 77%
    18:00 +19°C° 2.6 mm 3 m/S 594 mmHg 80%
    19:00 +17°C° 2.6 mm 3 m/S 594 mmHg 83%
    20:00 +16°C° 2.6 mm 2 m/S 594 mmHg 86%
    21:00 +16°C° 0.1 mm 2 m/S 594 mmHg 86%
    22:00 +15°C° 0.1 mm 1 m/S 594 mmHg 85%
    23:00 +15°C° 0.1 mm 1 m/S 594 mmHg 85%
    Mehr zeigen